Location: �couen
(49.0206°N, 2.3831°E)
Time: 03:34:41
(UTC+00:00)

ATLAS 3B R/B - Pass Details

Date: 25 May 2022
Orbit: 976 x 1218 km, 63.8° (Epoch: 20 June)

Event Time Altitude Azimuth Distance (km) Brightness Sun altitude
Rises 23:34:59 0° 313° (NW) 3,987 6.4 -19.8°
Reaches altitude 10° 23:38:04 10° 302° (WNW) 3,059 5.5 -19.9°
Maximum altitude 23:43:56 27° 249° (WSW) 2,117 4.1 -19.9°
Enters shadow 23:46:33 22° 219° (SW) 2,356 4.1 -19.9°
